Regional Weather Roundup
Issued by NWS Charleston, WV

Home | Current Version | Previous Version | Graphics & Text | Print | Product List | Glossary On
Versions: 1 2 3 4 5 6 7 8 9 10 11 12 13 14 15 16 17 18 19 20 21 22 23 24 25 26 27 28 29 30 31 32 33 34 35 36 37 38 39 40 41 42 43 44 45 46 47 48 49 50
000
ASUS41 KRLX 232110
RWRRLX
West Virginia Regional Weather Roundup
National Weather Service Charleston WV
500 PM EDT TUE SEP 23 2014

Note: "fair" indicates few or no clouds below 12,000 feet with no
significant weather and/or obstructions to visibility.

WVZ003-232200-
Northern Panhandle of West Virginia

CITY           SKY/WX    TMP DP  RH WIND       PRES   REMARKS
WHEELING       SUNNY     68  43  40 NE6       30.33F
$$

WVZ009-232200-
Northwest West Virginia

CITY           SKY/WX    TMP DP  RH WIND       PRES   REMARKS
PARKERSBURG    SUNNY     72  43  35 E8        30.33F
$$

WVZ006-232200-
Western West Virginia

CITY           SKY/WX    TMP DP  RH WIND       PRES   REMARKS
HUNTINGTON     SUNNY     70  43  37 VRB3      30.28F
$$

WVZ015-232200-
West Central West Virginia

CITY           SKY/WX    TMP DP  RH WIND       PRES   REMARKS
CHARLESTON     MOSUNNY   71  40  32 NE5       30.28F
$$

WVZ031-232200-
North Central West Virginia

CITY           SKY/WX    TMP DP  RH WIND       PRES   REMARKS
CLARKSBURG     SUNNY     68  48  48 N6        30.30F
MORGANTOWN     SUNNY     71  45  39 N8        30.32F
$$

WVZ035-042-045-232200-
South Central West Virginia

CITY           SKY/WX    TMP DP  RH WIND       PRES   REMARKS
BECKLEY        MOSUNNY   68  46  45 CALM      30.30F
BLUEFIELD      PTSUNNY   65  51  60 SE8       30.32S
LEWISBURG      PTSUNNY   66  47  51 SE3       30.31F
$$

WVZ047-232200-
Northern Mountains of West Virginia

CITY           SKY/WX    TMP DP  RH WIND       PRES   REMARKS
ELKINS         MOSUNNY   71  44  37 N6        30.31R
$$

WVZ052-232200-
Eastern Panhandle of West Virginia

CITY           SKY/WX    TMP DP  RH WIND       PRES   REMARKS
MARTINSBURG    MOSUNNY   69  39  33 NE3       30.33S
PETERSBURG     MOSUNNY   71  36  27 CALM      30.32S
$$



USA.gov is the U.S. government's official web portal to all federal, state and local government web resources and services.